KD5UIG Weather Reports


time (UTC)temp
C
wind
direction
speed
KPH
gust
KPH
rain 1hr
cm
rain 24hr
cm
rain mn
cm
humidity
%
barometer
mb
20210920055116 25 144 1.6 4.8 0.00 0.00 0.00 76 1010.2
20210920054612 26 91 1.6 8.0 0.00 0.00 0.00 76 1010.2
20210920054127 26 135 0.0 8.0 0.00 0.00 0.00 75 1010.2
20210920053621 26 171 1.6 6.4 0.00 0.00 0.00 75 1010.2
20210920053111 26 147 3.2 6.4 0.00 0.00 0.00 75 1010.2
20210920052607 26 193 1.6 4.8 0.00 0.00 0.00 74 1010.3
20210920052125 26 134 1.6 6.4 0.00 0.00 0.00 74 1010.2
20210920051607 26 153 1.6 11.3 0.00 0.00 0.00 73 1010.2
20210920051117 26 120 3.2 8.0 0.00 0.00 0.00 73 1010.3
20210920050626 26 168 1.6 3.2 0.00 0.00 0.00 73 1010.4
20210920050123 26 173 1.6 3.2 0.00 0.00 0.00 72 1010.4
20210920045621 26 165 0.0 9.7 0.00 0.00 0.00 71 1010.4
20210920045114 26 110 3.2 9.7 0.00 0.00 0.00 71 1010.5
20210920044618 26 172 1.6 6.4 0.00 0.00 0.00 71 1010.4
20210920044119 26 138 1.6 6.4 0.00 0.00 0.00 71 1010.4
20210920043627 26 153 1.6 4.8 0.00 0.00 0.00 70 1010.5
20210920043127 26 123 1.6 6.4 0.00 0.00 0.00 70 1010.5
20210920042626 27 154 1.6 6.4 0.00 0.00 0.00 69 1010.5
20210920042115 27 138 0.0 6.4 0.00 0.00 0.00 69 1010.6
20210920041625 27 163 1.6 4.8 0.00 0.00 0.00 69 1010.5
20210920041129 27 163 1.6 4.8 0.00 0.00 0.00 68 1010.6
20210920040620 27 155 1.6 6.4 0.00 0.00 0.00 67 1010.7
20210920040110 27 69 1.6 6.4 0.00 0.00 0.00 66 1010.8
20210920035611 27 121 3.2 6.4 0.00 0.00 0.00 66 1010.8
20210920035108 27 136 1.6 9.7 0.00 0.00 0.00 65 1010.8
20210920034622 27 92 1.6 9.7 0.00 0.00 0.00 65 1010.8
20210920034108 27 146 3.2 8.0 0.00 0.00 0.00 65 1010.8
20210920033610 27 142 1.6 6.4 0.00 0.00 0.00 64 1010.8
20210920033118 27 128 1.6 6.4 0.00 0.00 0.00 64 1010.9
20210920032616 27 126 1.6 4.8 0.00 0.00 0.00 63 1010.9
20210920032120 27 132 1.6 4.8 0.00 0.00 0.00 64 1010.9
20210920031615 27 114 0.0 3.2 0.00 0.00 0.00 63 1010.8
20210920031125 27 114 1.6 3.2 0.00 0.00 0.00 62 1010.7
20210920030613 27 114 0.0 1.6 0.00 0.00 0.00 62 1010.8
20210920030113 27 114 0.0 4.8 0.00 0.00 0.00 62 1010.7
20210920025615 28 114 1.6 4.8 0.00 0.00 0.00 61 1010.8
20210920025128 28 91 0.0 3.2 0.00 0.00 0.00 61 1010.7
20210920024627 27 91 0.0 3.2 0.00 0.00 0.00 61 1010.7
20210920024122 27 91 1.6 3.2 0.00 0.00 0.00 62 1010.8
20210920023617 27 91 1.6 3.2 0.00 0.00 0.00 61 1010.7
20210920023115 28 88 0.0 3.2 0.00 0.00 0.00 61 1010.7
20210920022613 28 84 0.0 3.2 0.00 0.00 0.00 60 1010.6
20210920022128 28 84 1.6 3.2 0.00 0.00 0.00 60 1010.6
20210920021618 28 84 1.6 3.2 0.00 0.00 0.00 59 1010.5
20210920021112 28 84 0.0 3.2 0.00 0.00 0.00 58 1010.5
20210920020613 28 84 0.0 3.2 0.00 0.00 0.00 57 1010.4
20210920020127 28 84 0.0 1.6 0.00 0.00 0.00 57 1010.3
20210920015613 28 84 0.0 1.6 0.00 0.00 0.00 56 1010.3
20210920015121 28 84 0.0 1.6 0.00 0.00 0.00 56 1010.2
20210920014617 29 84 0.0 1.6 0.00 0.00 0.00 55 1010.2
20210920014113 29 84 0.0 1.6 0.00 0.00 0.00 55 1010.1
20210920013619 29 84 0.0 1.6 0.00 0.00 0.00 54 1010.1
20210920013125 29 84 0.0 1.6 0.00 0.00 0.00 54 1010.0
20210920012622 30 84 0.0 1.6 0.00 0.00 0.00 54 1009.8
20210920012127 30 84 0.0 1.6 0.00 0.00 0.00 53 1009.8
20210920011620 30 84 0.0 1.6 0.00 0.00 0.00 53 1009.8
20210920011119 30 84 0.0 1.6 0.00 0.00 0.00 53 1009.7
20210920010630 30 84 0.0 1.6 0.00 0.00 0.00 53 1009.7
20210920010126 30 84 0.0 1.6 0.00 0.00 0.00 53 1009.7
20210920005611 30 84 0.0 1.6 0.00 0.00 0.00 52 1009.7
20210920005123 30 84 0.0 3.2 0.00 0.00 0.00 52 1009.7
20210920004616 30 84 0.0 3.2 0.00 0.00 0.00 52 1009.7
20210920004116 30 84 0.0 3.2 0.00 0.00 0.00 51 1009.7
20210920003622 30 84 1.6 4.8 0.00 0.00 0.00 51 1009.7
20210920003120 31 110 1.6 4.8 0.00 0.00 0.00 50 1009.7
20210920002615 31 110 1.6 4.8 0.00 0.00 0.00 49 1009.7
20210920002119 31 109 1.6 4.8 0.00 0.00 0.00 48 1009.8
20210920001619 31 95 1.6 6.4 0.00 0.00 0.00 47 1009.7
20210920001109 32 97 1.6 6.4 0.00 0.00 0.00 47 1009.8
20210920000623 32 70 3.2 6.4 0.00 0.00 0.00 47 1009.8
20210920000127 32 80 3.2 6.4 0.00 0.00 0.00 46 1009.8
20210919235623 32 117 1.6 6.4 0.00 0.00 0.00 46 1009.8
20210919235121 32 89 1.6 6.4 0.00 0.00 0.00 46 1009.7
20210919234623 32 59 3.2 6.4 0.00 0.00 0.00 46 1009.8
20210919234115 33 123 1.6 6.4 0.00 0.00 0.00 46 1009.7
20210919233628 33 88 3.2 6.4 0.00 0.00 0.00 46 1009.7
20210919233126 33 73 3.2 6.4 0.00 0.00 0.00 46 1009.7
20210919232611 33 143 1.6 6.4 0.00 0.00 0.00 46 1009.7
20210919232117 33 144 1.6 6.4 0.00 0.00 0.00 45 1009.7
20210919231615 33 157 1.6 6.4 0.00 0.00 0.00 46 1009.6
20210919231122 33 173 1.6 6.4 0.00 0.00 0.00 45 1009.7
20210919230611 33 159 1.6 6.4 0.00 0.00 0.00 44 1009.7
20210919230114 34 122 3.2 8.0 0.00 0.00 0.00 43 1009.6
20210919225620 33 160 4.8 8.0 0.00 0.00 0.00 44 1009.6
20210919225127 33 209 1.6 6.4 0.00 0.00 0.00 43 1009.7
20210919224613 34 72 1.6 8.0 0.00 0.00 0.00 44 1009.7
20210919224112 34 189 1.6 11.3 0.00 0.00 0.00 44 1009.7
20210919223610 34 238 3.2 8.0 0.00 0.00 0.00 43 1009.6
20210919223107 34 152 3.2 8.0 0.00 0.00 0.00 43 1009.7
20210919222630 34 199 3.2 8.0 0.00 0.00 0.00 43 1009.7
20210919222122 34 207 3.2 6.4 0.00 0.00 0.00 44 1009.7
20210919221628 35 216 1.6 3.2 0.00 0.00 0.00 43 1009.7
20210919221122 34 202 1.6 6.4 0.00 0.00 0.00 43 1009.8
20210919220617 34 132 0.0 4.8 0.00 0.00 0.00 44 1009.8
20210919220127 35 154 1.6 8.0 0.00 0.00 0.00 46 1009.9
20210919215622 34 213 1.6 8.0 0.00 0.00 0.00 44 1009.9
20210919215124 35 81 1.6 4.8 0.00 0.00 0.00 44 1009.9
20210919214627 35 202 1.6 9.7 0.00 0.00 0.00 46 1010.0
20210919214117 35 263 3.2 9.7 0.00 0.00 0.00 44 1010.1
20210919213617 34 120 4.8 14.5 0.00 0.00 0.00 46 1010.0
20210919213120 35 63 3.2 14.5 0.00 0.00 0.00 46 1010.1
20210919212609 34 71 3.2 8.0 0.00 0.00 0.00 46 1010.1
20210919212133 35 113 4.8 12.9 0.00 0.00 0.00 46 1010.2
20210919211626 35 156 3.2 8.0 0.00 0.00 0.00 47 1010.3
20210919211107 33 64 1.6 8.0 0.00 0.00 0.00 47 1010.4
20210919210622 35 169 3.2 11.3 0.00 0.00 0.00 43 1010.4
20210919210118 35 153 3.2 11.3 0.00 0.00 0.00 44 1010.4
20210919205627 35 90 3.2 11.3 0.00 0.00 0.00 46 1010.4
20210919205125 35 66 4.8 9.7 0.00 0.00 0.00 44 1010.5
20210919204608 35 215 1.6 8.0 0.00 0.00 0.00 46 1010.6
20210919204133 35 178 4.8 11.3 0.00 0.00 0.00 44 1010.7
20210919203632 35 199 3.2 14.5 0.00 0.00 0.00 45 1010.7
20210919203122 35 88 4.8 14.5 0.00 0.00 0.00 45 1010.8
20210919202623 35 96 3.2 8.0 0.00 0.00 0.00 47 1010.9
20210919202122 35 138 3.2 8.0 0.00 0.00 0.00 45 1011.0
20210919201620 35 53 1.6 4.8 0.00 0.00 0.00 45 1011.1
20210919201108 35 89 1.6 8.0 0.00 0.00 0.00 46 1011.1
20210919200617 35 99 3.2 9.7 0.00 0.00 0.00 46 1011.2
20210919200121 34 53 4.8 9.7 0.00 0.00 0.00 47 1011.3
20210919195612 34 78 3.2 6.4 0.00 0.00 0.00 47 1011.4
20210919195131 34 123 3.2 8.0 0.00 0.00 0.00 47 1011.5
20210919194616 33 329 3.2 11.3 0.00 0.00 0.00 47 1011.7
20210919194107 33 94 4.8 12.9 0.00 0.00 0.00 49 1011.9
20210919193617 33 66 4.8 12.9 0.00 0.00 0.00 48 1012.0
20210919193109 35 130 1.6 6.4 0.00 0.00 0.00 51 1012.1
20210919192615 34 102 3.2 6.4 0.00 0.00 0.00 50 1012.3
20210919192119 33 134 3.2 14.5 0.00 0.00 0.00 51 1012.4
20210919191616 34 259 4.8 14.5 0.00 0.00 0.00 49 1012.5
20210919191126 34 219 3.2 11.3 0.00 0.00 0.00 51 1012.6
20210919190614 33 128 3.2 9.7 0.00 0.00 0.00 53 1012.7
20210919190115 33 90 3.2 14.5 0.00 0.00 0.00 52 1012.8
20210919185619 34 74 4.8 14.5 0.00 0.00 0.00 52 1012.8
20210919185126 33 198 1.6 9.7 0.00 0.00 0.00 53 1012.9
20210919184623 33 91 4.8 8.0 0.00 0.00 0.00 51 1012.9
20210919184120 35 140 1.6 12.9 0.00 0.00 0.00 55 1013.1
20210919183618 34 217 4.8 12.9 0.00 0.00 0.00 52 1013.0
20210919183130 34 68 3.2 8.0 0.00 0.00 0.00 53 1013.2
20210919182629 34 34 3.2 11.3 0.00 0.00 0.00 53 1013.2
20210919182126 33 82 4.8 9.7 0.00 0.00 0.00 55 1013.3
20210919181617 32 51 3.2 6.4 0.00 0.00 0.00 60 1013.3
20210919181124 32 83 3.2 8.0 0.00 0.00 0.00 57 1013.4
20210919180620 32 62 4.8 8.0 0.00 0.00 0.00 57 1013.6
20210919180110 32 226 1.6 9.7 0.00 0.00 0.00 57 1013.6
20210919175608 31 136 3.2 8.0 0.00 0.00 0.00 58 1013.7
20210919175117 31 83 1.6 8.0 0.00 0.00 0.00 57 1013.7
20210919174617 33 49 1.6 8.0 0.00 0.00 0.00 53 1013.8
20210919174110 33 186 3.2 11.3 0.00 0.00 0.00 52 1013.9
20210919173623 33 360 3.2 11.3 0.00 0.00 0.00 54 1013.9
20210919173122 32 40 4.8 11.3 0.00 0.00 0.00 54 1014.0
20210919172621 32 84 6.4 11.3 0.00 0.00 0.00 53 1014.2
20210919172126 33 156 1.6 9.7 0.00 0.00 0.00 55 1014.2
20210919171617 32 122 4.8 9.7 0.00 0.00 0.00 55 1014.4
20210919171130 33 164 3.2 9.7 0.00 0.00 0.00 55 1014.3
20210919170625 32 149 3.2 8.0 0.00 0.00 0.00 57 1014.4
20210919170116 32 188 1.6 6.4 0.00 0.00 0.00 58 1014.5
20210919165612 31 140 1.6 8.0 0.00 0.00 0.00 58 1014.6
20210919165111 32 162 1.6 8.0 0.00 0.00 0.00 58 1014.6
20210919164623 32 93 3.2 4.8 0.00 0.00 0.00 58 1014.7
20210919164121 33 289 1.6 4.8 0.00 0.00 0.00 57 1014.7
20210919163625 33 205 1.6 4.8 0.00 0.00 0.00 60 1014.7
20210919163119 31 250 1.6 4.8 0.00 0.00 0.00 60 1014.7
20210919162625 31 313 3.2 6.4 0.00 0.00 0.00 60 1014.8
20210919162125 31 290 3.2 4.8 0.00 0.00 0.00 60 1014.8
20210919161624 32 281 1.6 4.8 0.00 0.00 0.00 65 1014.9
20210919161117 31 269 1.6 4.8 0.00 0.00 0.00 61 1014.9
20210919160617 31 215 0.0 8.0 0.00 0.00 0.00 63 1014.9
20210919160124 31 213 4.8 8.0 0.00 0.00 0.00 63 1014.9
20210919155609 31 79 3.2 6.4 0.00 0.00 0.00 63 1015.0
20210919155125 31 281 0.0 4.8 0.00 0.00 0.00 64 1015.0
20210919154626 31 240 1.6 4.8 0.00 0.00 0.00 62 1015.0
20210919154118 31 228 1.6 4.8 0.00 0.00 0.00 66 1015.0
20210919153626 31 81 1.6 3.2 0.00 0.00 0.00 66 1014.9
20210919153121 30 46 1.6 4.8 0.00 0.00 0.00 67 1014.9
20210919152614 30 44 1.6 4.8 0.00 0.00 0.00 69 1015.0
20210919152121 30 192 1.6 4.8 0.00 0.00 0.00 71 1015.1
20210919151614 29 321 1.6 6.4 0.00 0.00 0.00 71 1015.0
20210919151114 29 179 1.6 6.4 0.00 0.00 0.00 70 1015.0
20210919150612 29 200 0.0 3.2 0.00 0.00 0.00 69 1015.0
20210919150118 30 200 1.6 6.4 0.00 0.00 0.00 69 1014.9
20210919145608 29 200 0.0 6.4 0.00 0.00 0.00 72 1014.9
20210919145128 28 227 1.6 4.8 0.00 0.00 0.00 72 1014.9
20210919144615 28 198 0.0 4.8 0.00 0.00 0.00 75 1014.9
20210919144121 27 198 1.6 6.4 0.00 0.00 0.00 75 1014.9
20210919143630 27 197 3.2 6.4 0.00 0.00 0.00 76 1014.9
20210919143106 28 113 1.6 3.2 0.00 0.00 0.00 74 1015.0
20210919142624 27 113 1.6 3.2 0.00 0.00 0.00 77 1015.0
20210919142126 27 99 1.6 4.8 0.00 0.00 0.00 78 1014.9
20210919141617 27 95 1.6 3.2 0.00 0.00 0.00 79 1014.9
20210919141124 26 95 1.6 3.2 0.00 0.00 0.00 80 1014.9
20210919140626 26 90 1.6 3.2 0.00 0.00 0.00 80 1014.8
20210919140111 26 90 0.0 1.6 0.00 0.00 0.00 82 1014.7
20210919135617 26 90 0.0 1.6 0.00 0.00 0.00 82 1014.7
20210919135114 25 90 0.0 1.6 0.00 0.00 0.00 82 1014.8
20210919134615 25 90 0.0 1.6 0.00 0.00 0.00 82 1014.8
20210919134117 25 90 0.0 1.6 0.00 0.00 0.00 83 1014.7
20210919133621 25 90 0.0 1.6 0.00 0.00 0.00 85 1014.8
20210919133111 24 90 0.0 1.6 0.00 0.00 0.00 86 1014.8
20210919132625 23 90 0.0 1.6 0.00 0.00 0.00 88 1014.8
20210919132111 23 90 0.0 1.6 0.00 0.00 0.00 89 1014.9
20210919131630 22 90 0.0 1.6 0.00 0.00 0.00 91 1014.8
20210919131110 22 90 0.0 0.0 0.00 0.00 0.00 91 1014.8
20210919130621 22 90 0.0 1.6 0.00 0.00 0.00 92 1014.8
20210919130118 21 90 0.0 1.6 0.00 0.00 0.00 92 1014.7
20210919125628 21 90 0.0 1.6 0.00 0.00 0.00 92 1014.6
20210919125125 21 90 0.0 1.6 0.00 0.00 0.00 92 1014.7
20210919124610 21 90 0.0 1.6 0.00 0.00 0.00 92 1014.7
20210919124122 21 90 0.0 1.6 0.00 0.00 0.00 92 1014.6
20210919123617 21 90 0.0 0.0 0.00 0.00 0.00 92 1014.5
20210919123116 21 90 0.0 0.0 0.00 0.00 0.00 92 1014.5
20210919122614 21 90 0.0 1.6 0.00 0.00 0.00 92 1014.5
20210919122115 21 90 0.0 1.6 0.00 0.00 0.00 92 1014.5
20210919121623 21 90 0.0 1.6 0.00 0.00 0.00 92 1014.6
20210919121128 21 90 0.0 1.6 0.00 0.00 0.00 92 1014.6
20210919120621 21 90 0.0 1.6 0.00 0.00 0.00 92 1014.6
20210919120120 21 90 0.0 3.2 0.00 0.00 0.00 92 1014.5
20210919115611 21 90 1.6 3.2 0.00 0.00 0.00 92 1014.6
20210919115109 21 90 0.0 1.6 0.00 0.00 0.00 92 1014.5
20210919114607 21 90 0.0 1.6 0.00 0.00 0.00 92 1014.5
20210919114109 21 90 0.0 1.6 0.00 0.00 0.00 92 1014.5
20210919113625 21 90 0.0 1.6 0.00 0.00 0.00 92 1014.5
20210919113134 21 90 1.6 1.6 0.00 0.00 0.00 92 1014.5
20210919112624 21 90 0.0 1.6 0.00 0.00 0.00 92 1014.4
20210919112121 21 90 1.6 1.6 0.00 0.00 0.00 92 1014.5
20210919111615 21 90 0.0 1.6 0.00 0.00 0.00 92 1014.5
20210919111118 21 90 0.0 1.6 0.00 0.00 0.00 92 1014.4
20210919110621 21 90 0.0 1.6 0.00 0.00 0.00 92 1014.4
20210919110125 21 90 0.0 0.0 0.00 0.00 0.00 92 1014.4
20210919105621 21 90 0.0 0.0 0.00 0.00 0.00 92 1014.4
20210919105121 21 90 0.0 0.0 0.00 0.00 0.00 92 1014.4
20210919104620 21 90 0.0 1.6 0.00 0.00 0.00 91 1014.4
20210919104121 21 90 0.0 1.6 0.00 0.00 0.00 91 1014.3
20210919103611 21 90 0.0 3.2 0.00 0.00 0.00 91 1014.4
20210919103108 21 90 1.6 3.2 0.00 0.00 0.00 90 1014.4
20210919102611 21 90 1.6 3.2 0.00 0.00 0.00 90 1014.4
20210919102119 21 90 1.6 3.2 0.00 0.00 0.00 89 1014.3
20210919101610 22 90 1.6 3.2 0.00 0.00 0.00 88 1014.3
20210919101123 22 90 1.6 3.2 0.00 0.00 0.00 87 1014.3
20210919100619 22 90 0.0 1.6 0.00 0.00 0.00 85 1014.3
20210919100113 22 90 0.0 0.0 0.00 0.00 0.00 85 1014.4
20210919095621 22 90 0.0 0.0 0.00 0.00 0.00 85 1014.4
20210919095123 22 90 0.0 1.6 0.00 0.00 0.00 84 1014.4
20210919094618 22 90 0.0 1.6 0.00 0.00 0.00 84 1014.4
20210919094122 22 90 0.0 1.6 0.00 0.00 0.00 84 1014.4
20210919093610 22 90 0.0 1.6 0.00 0.00 0.00 85 1014.4
20210919093110 22 90 0.0 1.6 0.00 0.00 0.00 84 1014.4
20210919092614 22 90 0.0 1.6 0.00 0.00 0.00 84 1014.4
20210919092122 22 90 0.0 1.6 0.00 0.00 0.00 83 1014.6
20210919091632 22 90 0.0 1.6 0.00 0.00 0.00 83 1014.6
20210919091123 22 90 0.0 3.2 0.00 0.00 0.00 83 1014.5
20210919090627 22 90 1.6 3.2 0.00 0.00 0.00 83 1014.6
20210919090122 22 90 1.6 3.2 0.00 0.00 0.00 83 1014.7
20210919085624 22 90 1.6 3.2 0.00 0.00 0.00 83 1014.7
20210919085119 22 90 1.6 3.2 0.00 0.00 0.00 83 1014.7
20210919084618 22 90 1.6 3.2 0.00 0.00 0.00 82 1014.8
20210919084130 23 90 0.0 3.2 0.00 0.00 0.00 81 1014.8
20210919083630 23 90 1.6 1.6 0.00 0.00 0.00 82 1014.8
20210919083129 22 90 0.0 1.6 0.00 0.00 0.00 82 1014.8
20210919082625 22 90 0.0 1.6 0.00 0.00 0.00 82 1014.7
20210919082121 22 90 0.0 1.6 0.00 0.00 0.00 81 1014.7
20210919081613 22 90 0.0 1.6 0.00 0.00 0.00 81 1014.7
20210919081112 22 90 0.0 1.6 0.00 0.00 0.00 81 1014.6
20210919080611 22 90 0.0 1.6 0.00 0.00 0.00 81 1014.6
20210919080112 23 90 0.0 1.6 0.00 0.00 0.00 80 1014.6
20210919075624 23 90 0.0 1.6 0.00 0.00 0.00 81 1014.6
20210919075119 22 90 0.0 1.6 0.00 0.00 0.00 81 1014.7
20210919074620 22 90 0.0 1.6 0.00 0.00 0.00 82 1014.7
20210919074114 22 90 0.0 0.0 0.00 0.00 0.00 83 1014.8
20210919073627 22 90 0.0 1.6 0.00 0.00 0.00 82 1014.9
20210919073129 22 90 0.0 1.6 0.00 0.00 0.00 81 1014.9
20210919072609 23 90 0.0 1.6 0.00 0.00 0.00 81 1014.9
20210919072127 23 90 0.0 1.6 0.00 0.00 0.00 81 1014.9
20210919071618 23 90 0.0 1.6 0.00 0.00 0.00 80 1014.9
20210919071121 23 90 0.0 1.6 0.00 0.00 0.00 80 1014.9
20210919070611 23 90 0.0 0.0 0.00 0.00 0.00 81 1014.9
20210919070110 23 90 0.0 0.0 0.00 0.00 0.00 82 1014.9
20210919065617 22 90 0.0 0.0 0.00 0.00 0.00 83 1014.9
20210919065123 22 90 0.0 1.6 0.00 0.00 0.00 83 1014.9
20210919064614 23 90 0.0 1.6 0.00 0.00 0.00 81 1015.0
20210919064118 23 90 0.0 0.0 0.00 0.00 0.00 80 1014.9
20210919063617 23 90 0.0 0.0 0.00 0.00 0.00 79 1014.9
20210919063108 23 90 0.0 0.0 0.00 0.00 0.00 79 1014.9
20210919062608 23 90 0.0 0.0 0.00 0.00 0.00 78 1014.9
20210919062121 23 90 0.0 0.0 0.00 0.00 0.00 79 1015.0
20210919061629 23 90 0.0 0.0 0.00 0.00 0.00 78 1015.0
20210919061126 23 90 0.0 0.0 0.00 0.00 0.00 78 1015.0
20210919060616 23 90 0.0 1.6 0.00 0.00 0.00 78 1015.0
20210919060115 23 90 0.0 1.6 0.00 0.00 0.00 78 1015.1
20210919055626 24 90 0.0 1.6 0.00 0.00 0.00 77 1015.1